Time,TemperatureF,DewpointF,PressureIn,WindDirection,WindDirectionDegrees,WindSpeedMPH,WindSpeedGustMPH,Humidity,HourlyPrecipIn,Conditions,Clouds,dailyrainin,SoftwareType,DateUTC
2013-12-21 00:01:00,75.4,69.9,30.09,ESE,115,3.0,5.0,83,0.00,,,0.00,Wunderground v.1.15,2013-12-21 05:01:00,
2013-12-21 00:03:00,75.4,69.9,30.09,East,94,3.0,5.0,83,0.00,,,0.00,Wunderground v.1.15,2013-12-21 05:03:00,
2013-12-21 00:05:00,75.3,69.8,30.09,East,89,3.0,5.0,83,0.00,,,0.00,Wunderground v.1.15,2013-12-21 05:05:00,
2013-12-21 00:07:00,75.3,69.8,30.09,East,79,3.0,5.0,83,0.00,,,0.00,Wunderground v.1.15,2013-12-21 05:07:00,
2013-12-21 00:10:00,75.3,69.8,30.09,East,91,3.0,4.0,83,0.00,,,0.00,Wunderground v.1.15,2013-12-21 05:10:00,
2013-12-21 00:16:00,75.3,69.8,30.08,East,81,3.0,6.0,83,0.00,,,0.00,Wunderground v.1.15,2013-12-21 05:16:00,
2013-12-21 00:21:00,75.3,69.8,30.08,East,83,4.0,5.0,83,0.00,,,0.00,Wunderground v.1.15,2013-12-21 05:21:00,
2013-12-21 00:27:00,75.3,70.1,30.08,ENE,63,3.0,7.0,84,0.00,,,0.00,Wunderground v.1.15,2013-12-21 05:27:00,
2013-12-21 00:32:00,75.3,70.1,30.08,East,92,3.0,5.0,84,0.00,,,0.00,Wunderground v.1.15,2013-12-21 05:32:00,
2013-12-21 00:38:00,75.3,70.1,30.08,East,87,3.0,5.0,84,0.00,,,0.00,Wunderground v.1.15,2013-12-21 05:38:00,
2013-12-21 00:43:00,75.3,70.1,30.08,ESE,118,3.0,6.0,84,0.00,,,0.00,Wunderground v.1.15,2013-12-21 05:43:00,
2013-12-21 00:49:00,75.2,70.0,30.08,ESE,119,3.0,6.0,84,0.00,,,0.00,Wunderground v.1.15,2013-12-21 05:49:00,
2013-12-21 00:55:00,75.2,70.4,30.08,East,92,2.0,5.0,85,0.00,,,0.00,Wunderground v.1.15,2013-12-21 05:55:00,
2013-12-21 01:00:00,75.1,70.3,30.07,ESE,118,3.0,5.0,85,0.00,,,0.00,Wunderground v.1.15,2013-12-21 06:00:00,
2013-12-21 01:05:00,75.3,70.5,30.07,SE,124,3.0,5.0,85,0.00,,,0.00,Wunderground v.1.15,2013-12-21 06:05:00,
2013-12-21 01:11:00,75.3,70.5,30.07,SE,130,3.0,3.0,85,0.00,,,0.00,Wunderground v.1.15,2013-12-21 06:11:00,
2013-12-21 01:17:00,75.2,70.4,30.07,East,86,3.0,6.0,85,0.00,,,0.00,Wunderground v.1.15,2013-12-21 06:17:00,
2013-12-21 01:22:00,75.2,70.4,30.07,SE,125,3.0,6.0,85,0.00,,,0.00,Wunderground v.1.15,2013-12-21 06:22:00,
2013-12-21 01:28:00,75.1,70.3,30.07,East,96,3.0,6.0,85,0.00,,,0.00,Wunderground v.1.15,2013-12-21 06:28:00,
2013-12-21 01:33:00,75.2,70.4,30.06,SE,131,3.0,5.0,85,0.00,,,0.00,Wunderground v.1.15,2013-12-21 06:33:00,
2013-12-21 01:39:00,75.2,70.4,30.06,ESE,118,4.0,5.0,85,0.00,,,0.00,Wunderground v.1.15,2013-12-21 06:39:00,
2013-12-21 01:44:00,75.3,70.5,30.06,ESE,106,3.0,7.0,85,0.00,,,0.00,Wunderground v.1.15,2013-12-21 06:44:00,
2013-12-21 01:50:00,75.3,70.5,30.06,ESE,117,3.0,3.0,85,0.00,,,0.00,Wunderground v.1.15,2013-12-21 06:50:00,
2013-12-21 01:55:00,75.2,70.4,30.06,ESE,110,3.0,4.0,85,0.00,,,0.00,Wunderground v.1.15,2013-12-21 06:55:00,
2013-12-21 02:01:00,75.2,70.4,30.05,East,94,3.0,6.0,85,0.00,,,0.00,Wunderground v.1.15,2013-12-21 07:01:00,
2013-12-21 02:06:00,75.1,70.3,30.05,ESE,110,4.0,6.0,85,0.00,,,0.00,Wunderground v.1.15,2013-12-21 07:06:00,
2013-12-21 02:12:00,75.3,70.5,30.05,SE,136,4.0,9.0,85,0.00,,,0.00,Wunderground v.1.15,2013-12-21 07:12:00,
2013-12-21 02:17:00,75.3,70.5,30.05,ESE,102,4.0,9.0,85,0.00,,,0.00,Wunderground v.1.15,2013-12-21 07:17:00,
2013-12-21 02:23:00,75.3,70.5,30.05,East,85,3.0,4.0,85,0.00,,,0.00,Wunderground v.1.15,2013-12-21 07:23:00,
2013-12-21 02:29:00,75.2,70.4,30.04,East,91,4.0,4.0,85,0.00,,,0.00,Wunderground v.1.15,2013-12-21 07:29:00,
2013-12-21 02:34:00,75.2,70.4,30.04,East,101,4.0,5.0,85,0.00,,,0.00,Wunderground v.1.15,2013-12-21 07:34:00,
2013-12-21 02:40:00,75.2,70.4,30.04,ESE,109,4.0,9.0,85,0.00,,,0.00,Wunderground v.1.15,2013-12-21 07:40:00,
2013-12-21 02:45:00,75.3,70.5,30.04,East,88,4.0,9.0,85,0.00,,,0.00,Wunderground v.1.15,2013-12-21 07:45:00,
2013-12-21 02:51:00,75.3,70.5,30.04,ESE,117,4.0,5.0,85,0.00,,,0.00,Wunderground v.1.15,2013-12-21 07:51:00,
2013-12-21 02:56:00,75.3,70.5,30.04,ENE,72,4.0,7.0,85,0.00,,,0.00,Wunderground v.1.15,2013-12-21 07:56:00,
2013-12-21 03:02:00,75.4,70.2,30.04,East,84,5.0,11.0,84,0.00,,,0.00,Wunderground v.1.15,2013-12-21 08:02:00,
2013-12-21 03:07:00,75.3,70.5,30.04,SE,136,5.0,11.0,85,0.00,,,0.00,Wunderground v.1.15,2013-12-21 08:07:00,
2013-12-21 03:13:00,75.2,70.4,30.04,ESE,113,3.0,6.0,85,0.00,,,0.00,Wunderground v.1.15,2013-12-21 08:13:00,
2013-12-21 03:18:00,75.1,70.3,30.03,SE,144,4.0,6.0,85,0.00,,,0.00,Wunderground v.1.15,2013-12-21 08:18:00,
2013-12-21 03:24:00,75.1,70.3,30.03,ESE,117,4.0,6.0,85,0.00,,,0.00,Wunderground v.1.15,2013-12-21 08:24:00,
2013-12-21 03:29:00,75.1,70.3,30.03,East,86,5.0,6.0,85,0.00,,,0.00,Wunderground v.1.15,2013-12-21 08:29:00,
2013-12-21 03:35:00,75.1,70.3,30.03,SE,129,4.0,6.0,85,0.00,,,0.00,Wunderground v.1.15,2013-12-21 08:35:00,
2013-12-21 03:41:00,75.0,70.2,30.03,East,101,4.0,4.0,85,0.00,,,0.00,Wunderground v.1.15,2013-12-21 08:41:00,
2013-12-21 03:46:00,75.0,70.2,30.03,ENE,72,4.0,6.0,85,0.00,,,0.00,Wunderground v.1.15,2013-12-21 08:46:00,
2013-12-21 03:52:00,74.9,70.1,30.03,ESE,105,4.0,4.0,85,0.00,,,0.00,Wunderground v.1.15,2013-12-21 08:52:00,
2013-12-21 03:57:00,74.9,70.1,30.03,East,101,3.0,4.0,85,0.00,,,0.00,Wunderground v.1.15,2013-12-21 08:57:00,
2013-12-21 04:03:00,74.8,70.0,30.03,SE,132,3.0,4.0,85,0.00,,,0.00,Wunderground v.1.15,2013-12-21 09:03:00,
2013-12-21 04:09:00,74.8,70.0,30.03,ESE,108,3.0,6.0,85,0.00,,,0.00,Wunderground v.1.15,2013-12-21 09:09:00,
2013-12-21 04:14:00,74.8,70.3,30.03,ESE,112,3.0,4.0,86,0.00,,,0.00,Wunderground v.1.15,2013-12-21 09:14:00,
2013-12-21 04:20:00,74.8,70.3,30.03,ESE,120,2.0,2.0,86,0.00,,,0.00,Wunderground v.1.15,2013-12-21 09:20:00,
2013-12-21 04:26:00,74.7,70.2,30.03,East,98,2.0,5.0,86,0.00,,,0.00,Wunderground v.1.15,2013-12-21 09:26:00,
2013-12-21 04:31:00,74.6,70.1,30.02,ESE,117,2.0,3.0,86,0.00,,,0.00,Wunderground v.1.15,2013-12-21 09:31:00,
2013-12-21 04:36:00,74.6,70.1,30.02,East,91,2.0,3.0,86,0.00,,,0.00,Wunderground v.1.15,2013-12-21 09:36:00,
2013-12-21 04:42:00,74.7,70.2,30.02,ESE,114,3.0,5.0,86,0.00,,,0.00,Wunderground v.1.15,2013-12-21 09:42:00,
2013-12-21 04:47:00,74.7,70.2,30.02,ESE,108,3.0,5.0,86,0.00,,,0.00,Wunderground v.1.15,2013-12-21 09:47:00,
2013-12-21 04:53:00,74.8,70.3,30.02,ESE,118,3.0,4.0,86,0.00,,,0.00,Wunderground v.1.15,2013-12-21 09:53:00,
2013-12-21 04:58:00,74.8,70.3,30.02,East,93,3.0,6.0,86,0.00,,,0.00,Wunderground v.1.15,2013-12-21 09:58:00,
2013-12-21 05:04:00,74.8,70.3,30.02,ESE,115,4.0,9.0,86,0.00,,,0.00,Wunderground v.1.15,2013-12-21 10:04:00,
2013-12-21 05:09:00,74.7,70.6,30.02,SE,129,3.0,9.0,87,0.00,,,0.00,Wunderground v.1.15,2013-12-21 10:09:00,
2013-12-21 05:15:00,74.8,70.7,30.02,ESE,110,3.0,9.0,87,0.00,,,0.00,Wunderground v.1.15,2013-12-21 10:15:00,
2013-12-21 05:20:00,74.8,70.7,30.02,SE,139,3.0,3.0,87,0.00,,,0.00,Wunderground v.1.15,2013-12-21 10:20:00,
2013-12-21 05:26:00,74.7,70.6,30.02,East,98,3.0,9.0,87,0.00,,,0.00,Wunderground v.1.15,2013-12-21 10:26:00,
2013-12-21 05:32:00,74.7,70.6,30.03,ESE,116,3.0,9.0,87,0.00,,,0.00,Wunderground v.1.15,2013-12-21 10:32:00,
2013-12-21 05:37:00,74.6,70.5,30.03,SE,124,2.0,9.0,87,0.00,,,0.00,Wunderground v.1.15,2013-12-21 10:37:00,
2013-12-21 05:43:00,74.5,70.4,30.03,ESE,105,2.0,9.0,87,0.00,,,0.00,Wunderground v.1.15,2013-12-21 10:43:00,
2013-12-21 05:48:00,74.4,70.6,30.03,SE,124,2.0,9.0,88,0.00,,,0.00,Wunderground v.1.15,2013-12-21 10:48:00,
2013-12-21 05:54:00,74.4,70.6,30.03,SE,126,2.0,9.0,88,0.00,,,0.00,Wunderground v.1.15,2013-12-21 10:54:00,
2013-12-21 05:59:00,74.4,70.6,30.03,SE,129,2.0,9.0,88,0.00,,,0.00,Wunderground v.1.15,2013-12-21 10:59:00,
2013-12-21 06:05:00,74.5,70.7,30.03,East,101,2.0,9.0,88,0.00,,,0.00,Wunderground v.1.15,2013-12-21 11:05:00,
2013-12-21 06:10:00,74.5,70.7,30.03,SE,126,2.0,9.0,88,0.00,,,0.00,Wunderground v.1.15,2013-12-21 11:10:00,
2013-12-21 06:15:00,74.4,70.6,30.03,East,86,2.0,9.0,88,0.00,,,0.00,Wunderground v.1.15,2013-12-21 11:15:00,
2013-12-21 06:21:00,74.2,70.4,30.03,East,96,2.0,9.0,88,0.00,,,0.00,Wunderground v.1.15,2013-12-21 11:21:00,
2013-12-21 06:26:00,74.2,70.4,30.03,SE,137,2.0,9.0,88,0.00,,,0.00,Wunderground v.1.15,2013-12-21 11:26:00,
2013-12-21 06:31:00,74.1,70.3,30.03,SE,126,2.0,4.0,88,0.00,,,0.00,Wunderground v.1.15,2013-12-21 11:31:00,
2013-12-21 06:37:00,74.2,70.4,30.04,East,82,2.0,9.0,88,0.00,,,0.00,Wunderground v.1.15,2013-12-21 11:37:00,
2013-12-21 06:42:00,74.2,70.4,30.04,ESE,103,2.0,9.0,88,0.00,,,0.00,Wunderground v.1.15,2013-12-21 11:42:00,
2013-12-21 06:48:00,74.4,70.9,30.04,SE,127,2.0,9.0,89,0.00,,,0.00,Wunderground v.1.15,2013-12-21 11:48:00,
2013-12-21 06:53:00,74.4,70.6,30.05,ESE,107,2.0,9.0,88,0.00,,,0.00,Wunderground v.1.15,2013-12-21 11:53:00,
2013-12-21 06:59:00,74.4,70.9,30.05,East,87,1.0,9.0,89,0.00,,,0.00,Wunderground v.1.15,2013-12-21 11:59:00,
2013-12-21 07:04:00,74.5,70.7,30.05,ENE,75,2.0,9.0,88,0.00,,,0.00,Wunderground v.1.15,2013-12-21 12:04:00,
2013-12-21 07:10:00,74.6,70.8,30.05,ESE,110,2.0,9.0,88,0.00,,,0.00,Wunderground v.1.15,2013-12-21 12:10:00,
2013-12-21 07:15:00,74.6,70.8,30.05,ESE,120,2.0,9.0,88,0.00,,,0.00,Wunderground v.1.15,2013-12-21 12:15:00,
2013-12-21 07:21:00,74.7,70.9,30.05,ESE,110,2.0,9.0,88,0.00,,,0.00,Wunderground v.1.15,2013-12-21 12:21:00,
2013-12-21 07:26:00,74.7,70.9,30.06,SE,134,2.0,9.0,88,0.00,,,0.00,Wunderground v.1.15,2013-12-21 12:26:00,
2013-12-21 07:32:00,74.8,71.0,30.06,SE,124,2.0,9.0,88,0.00,,,0.00,Wunderground v.1.15,2013-12-21 12:32:00,
2013-12-21 07:37:00,75.1,71.3,30.06,ESE,119,2.0,9.0,88,0.00,,,0.00,Wunderground v.1.15,2013-12-21 12:37:00,
2013-12-21 07:43:00,75.4,71.3,30.06,ENE,71,2.0,9.0,87,0.00,,,0.00,Wunderground v.1.15,2013-12-21 12:43:00,
2013-12-21 07:48:00,75.6,71.5,30.06,ESE,117,3.0,9.0,87,0.00,,,0.00,Wunderground v.1.15,2013-12-21 12:48:00,
2013-12-21 07:53:00,75.8,71.7,30.06,SE,126,3.0,9.0,87,0.00,,,0.00,Wunderground v.1.15,2013-12-21 12:53:00,
2013-12-21 07:59:00,76.3,71.8,30.06,ESE,105,3.0,9.0,86,0.00,,,0.00,Wunderground v.1.15,2013-12-21 12:59:00,
2013-12-21 08:05:00,76.6,71.7,30.06,East,85,3.0,9.0,85,0.00,,,0.00,Wunderground v.1.15,2013-12-21 13:05:00,
2013-12-21 08:10:00,76.9,72.0,30.06,East,94,4.0,4.0,85,0.00,,,0.00,Wunderground v.1.15,2013-12-21 13:10:00,
2013-12-21 08:15:00,77.2,72.0,30.06,SE,127,4.0,9.0,84,0.00,,,0.00,Wunderground v.1.15,2013-12-21 13:15:00,
2013-12-21 08:21:00,77.4,72.2,30.06,SSE,152,5.0,9.0,84,0.00,,,0.00,Wunderground v.1.15,2013-12-21 13:21:00,
2013-12-21 08:26:00,77.7,72.1,30.06,ENE,63,5.0,9.0,83,0.00,,,0.00,Wunderground v.1.15,2013-12-21 13:26:00,
2013-12-21 08:32:00,78.0,72.1,30.06,ESE,116,5.0,9.0,82,0.00,,,0.00,Wunderground v.1.15,2013-12-21 13:32:00,
2013-12-21 08:38:00,78.3,72.0,30.06,ESE,122,5.0,9.0,81,0.00,,,0.00,Wunderground v.1.15,2013-12-21 13:38:00,
2013-12-21 08:43:00,78.3,72.0,30.07,SSE,148,6.0,9.0,81,0.00,,,0.00,Wunderground v.1.15,2013-12-21 13:43:00,
2013-12-21 08:49:00,78.1,71.8,30.07,ESE,122,7.0,10.0,81,0.00,,,0.00,Wunderground v.1.15,2013-12-21 13:49:00,
2013-12-21 08:54:00,78.3,72.0,30.07,ESE,122,7.0,9.0,81,0.00,,,0.00,Wunderground v.1.15,2013-12-21 13:54:00,
2013-12-21 09:00:00,78.8,72.5,30.07,East,99,5.0,10.0,81,0.00,,,0.00,Wunderground v.1.15,2013-12-21 14:00:00,
2013-12-21 09:05:00,79.0,71.9,30.07,ESE,103,6.0,13.0,79,0.00,,,0.00,Wunderground v.1.15,2013-12-21 14:05:00,
2013-12-21 09:11:00,79.1,71.6,30.07,ESE,105,8.0,10.0,78,0.00,,,0.00,Wunderground v.1.15,2013-12-21 14:11:00,
2013-12-21 09:16:00,79.2,71.7,30.07,SSE,167,8.0,12.0,78,0.00,,,0.00,Wunderground v.1.15,2013-12-21 14:16:00,
2013-12-21 09:22:00,79.4,71.9,30.07,ESE,121,8.0,9.0,78,0.00,,,0.00,Wunderground v.1.15,2013-12-21 14:22:00,
2013-12-21 09:27:00,79.3,71.5,30.07,SE,134,8.0,9.0,77,0.00,,,0.00,Wunderground v.1.15,2013-12-21 14:27:00,
2013-12-21 09:33:00,79.6,71.8,30.07,ESE,102,7.0,9.0,77,0.00,,,0.00,Wunderground v.1.15,2013-12-21 14:33:00,
2013-12-21 09:38:00,79.8,71.6,30.08,ESE,106,7.0,12.0,76,0.00,,,0.00,Wunderground v.1.15,2013-12-21 14:38:00,
2013-12-21 09:44:00,79.8,71.9,30.08,ESE,122,7.0,9.0,77,0.00,,,0.00,Wunderground v.1.15,2013-12-21 14:44:00,
2013-12-21 09:49:00,79.5,71.7,30.08,SSE,153,8.0,12.0,77,0.00,,,0.00,Wunderground v.1.15,2013-12-21 14:49:00,
2013-12-21 09:55:00,79.2,71.4,30.08,ESE,111,8.0,11.0,77,0.00,,,0.00,Wunderground v.1.15,2013-12-21 14:55:00,
2013-12-21 10:01:00,79.5,71.3,30.08,ESE,113,7.0,9.0,76,0.00,,,0.00,Wunderground v.1.15,2013-12-21 15:01:00,
2013-12-21 10:06:00,79.9,71.3,30.08,ESE,113,8.0,11.0,75,0.00,,,0.00,Wunderground v.1.15,2013-12-21 15:06:00,
2013-12-21 10:12:00,80.0,71.4,30.08,ESE,116,8.0,10.0,75,0.00,,,0.00,Wunderground v.1.15,2013-12-21 15:12:00,
2013-12-21 10:17:00,80.0,71.4,30.08,ESE,108,7.0,10.0,75,0.00,,,0.00,Wunderground v.1.15,2013-12-21 15:17:00,
2013-12-21 10:23:00,80.1,71.5,30.08,SE,127,7.0,9.0,75,0.00,,,0.00,Wunderground v.1.15,2013-12-21 15:23:00,
2013-12-21 10:29:00,79.9,71.3,30.08,ESE,110,8.0,11.0,75,0.00,,,0.00,Wunderground v.1.15,2013-12-21 15:29:00,
2013-12-21 10:34:00,80.1,71.1,30.08,ESE,118,7.0,12.0,74,0.00,,,0.00,Wunderground v.1.15,2013-12-21 15:34:00,
2013-12-21 10:39:00,80.1,71.5,30.08,ENE,66,8.0,12.0,75,0.00,,,0.00,Wunderground v.1.15,2013-12-21 15:39:00,
2013-12-21 10:45:00,80.3,71.3,30.08,East,98,8.0,10.0,74,0.00,,,0.00,Wunderground v.1.15,2013-12-21 15:45:00,
2013-12-21 10:51:00,80.4,71.3,30.08,ESE,118,7.0,9.0,74,0.00,,,0.00,Wunderground v.1.15,2013-12-21 15:51:00,
2013-12-21 10:56:00,80.1,71.1,30.07,SE,125,8.0,9.0,74,0.00,,,0.00,Wunderground v.1.15,2013-12-21 15:56:00,
2013-12-21 11:02:00,80.5,71.4,30.07,ESE,107,8.0,9.0,74,0.00,,,0.00,Wunderground v.1.15,2013-12-21 16:02:00,
2013-12-21 11:08:00,80.5,71.4,30.07,SSE,158,8.0,14.0,74,0.00,,,0.00,Wunderground v.1.15,2013-12-21 16:08:00,
2013-12-21 11:14:00,80.7,71.6,30.07,ESE,106,8.0,9.0,74,0.00,,,0.00,Wunderground v.1.15,2013-12-21 16:14:00,
2013-12-21 11:19:00,81.5,72.0,30.07,SE,134,7.0,9.0,73,0.00,,,0.00,Wunderground v.1.15,2013-12-21 16:19:00,
2013-12-21 11:25:00,81.6,72.1,30.07,ESE,118,5.0,11.0,73,0.00,,,0.00,Wunderground v.1.15,2013-12-21 16:25:00,
2013-12-21 11:30:00,81.2,71.7,30.07,SE,141,7.0,7.0,73,0.00,,,0.00,Wunderground v.1.15,2013-12-21 16:30:00,
2013-12-21 11:35:00,81.2,71.7,30.07,ESE,104,7.0,10.0,73,0.00,,,0.00,Wunderground v.1.15,2013-12-21 16:35:00,
2013-12-21 11:41:00,81.2,71.7,30.07,East,100,6.0,9.0,73,0.00,,,0.00,Wunderground v.1.15,2013-12-21 16:41:00,
2013-12-21 11:47:00,81.2,71.7,30.06,ESE,105,7.0,10.0,73,0.00,,,0.00,Wunderground v.1.15,2013-12-21 16:47:00,
2013-12-21 11:53:00,80.6,71.5,30.06,East,90,7.0,12.0,74,0.00,,,0.00,Wunderground v.1.15,2013-12-21 16:53:00,
2013-12-21 11:59:00,80.6,71.9,30.06,SE,129,7.0,12.0,75,0.00,,,0.00,Wunderground v.1.15,2013-12-21 16:59:00,
2013-12-21 12:05:00,81.0,71.5,30.06,ESE,122,6.0,9.0,73,0.00,,,0.00,Wunderground v.1.15,2013-12-21 17:05:00,
2013-12-21 12:10:00,80.9,71.8,30.05,ESE,120,7.0,7.0,74,0.00,,,0.00,Wunderground v.1.15,2013-12-21 17:10:00,
2013-12-21 12:16:00,81.1,71.6,30.05,ESE,103,7.0,9.0,73,0.00,,,0.00,Wunderground v.1.15,2013-12-21 17:16:00,
2013-12-21 12:22:00,81.1,71.6,30.05,SSW,198,6.0,11.0,73,0.00,,,0.00,Wunderground v.1.15,2013-12-21 17:22:00,
2013-12-21 12:27:00,80.8,71.3,30.05,ESE,120,8.0,11.0,73,0.00,,,0.00,Wunderground v.1.15,2013-12-21 17:27:00,
2013-12-21 12:32:00,80.7,71.6,30.05,East,96,7.0,11.0,74,0.00,,,0.00,Wunderground v.1.15,2013-12-21 17:32:00,
2013-12-21 12:38:00,81.6,72.5,30.04,ENE,78,6.0,11.0,74,0.00,,,0.00,Wunderground v.1.15,2013-12-21 17:38:00,
2013-12-21 12:43:00,81.7,72.2,30.04,ESE,119,6.0,9.0,73,0.00,,,0.00,Wunderground v.1.15,2013-12-21 17:43:00,
2013-12-21 12:48:00,81.5,72.0,30.04,SE,134,7.0,10.0,73,0.00,,,0.00,Wunderground v.1.15,2013-12-21 17:48:00,
2013-12-21 12:54:00,81.8,71.5,30.04,East,101,7.0,9.0,71,0.00,,,0.00,Wunderground v.1.15,2013-12-21 17:54:00,
2013-12-21 13:00:00,81.5,71.6,30.03,East,90,7.0,7.0,72,0.00,,,0.00,Wunderground v.1.15,2013-12-21 18:00:00,
2013-12-21 13:05:00,81.1,71.6,30.03,SE,130,7.0,9.0,73,0.00,,,0.00,Wunderground v.1.15,2013-12-21 18:05:00,
2013-12-21 13:11:00,80.9,71.4,30.03,ESE,122,7.0,10.0,73,0.00,,,0.00,Wunderground v.1.15,2013-12-21 18:11:00,
2013-12-21 13:16:00,81.1,72.0,30.02,ESE,116,7.0,11.0,74,0.00,,,0.00,Wunderground v.1.15,2013-12-21 18:16:00,
2013-12-21 13:22:00,81.2,71.3,30.02,ESE,117,8.0,12.0,72,0.00,,,0.00,Wunderground v.1.15,2013-12-21 18:22:00,
2013-12-21 13:27:00,81.3,71.4,30.02,East,89,8.0,12.0,72,0.00,,,0.00,Wunderground v.1.15,2013-12-21 18:27:00,
2013-12-21 13:33:00,81.1,71.2,30.02,East,95,8.0,9.0,72,0.00,,,0.00,Wunderground v.1.15,2013-12-21 18:33:00,
2013-12-21 13:38:00,81.4,71.5,30.02,ESE,123,7.0,9.0,72,0.00,,,0.00,Wunderground v.1.15,2013-12-21 18:38:00,
2013-12-21 13:44:00,82.0,72.1,30.01,ESE,117,6.0,11.0,72,0.00,,,0.00,Wunderground v.1.15,2013-12-21 18:44:00,
2013-12-21 13:50:00,81.9,71.2,30.02,South,179,7.0,7.0,70,0.00,,,0.00,Wunderground v.1.15,2013-12-21 18:50:00,
2013-12-21 13:55:00,82.0,71.7,30.01,SE,132,7.0,9.0,71,0.00,,,0.00,Wunderground v.1.15,2013-12-21 18:55:00,
2013-12-21 14:01:00,81.7,71.4,30.01,ESE,121,7.0,13.0,71,0.00,,,0.00,Wunderground v.1.15,2013-12-21 19:01:00,
2013-12-21 14:06:00,81.0,71.1,30.01,SE,128,9.0,13.0,72,0.00,,,0.00,Wunderground v.1.15,2013-12-21 19:06:00,
2013-12-21 14:12:00,80.8,70.9,30.01,SE,144,9.0,11.0,72,0.00,,,0.00,Wunderground v.1.15,2013-12-21 19:12:00,
2013-12-21 14:18:00,80.9,71.4,30.00,ESE,109,7.0,11.0,73,0.00,,,0.00,Wunderground v.1.15,2013-12-21 19:18:00,
2013-12-21 14:23:00,81.0,71.9,30.01,ESE,120,6.0,9.0,74,0.00,,,0.00,Wunderground v.1.15,2013-12-21 19:23:00,
2013-12-21 14:29:00,80.6,71.5,30.00,SE,129,7.0,10.0,74,0.00,,,0.00,Wunderground v.1.15,2013-12-21 19:29:00,
2013-12-21 14:35:00,80.6,71.5,30.00,East,101,7.0,9.0,74,0.00,,,0.00,Wunderground v.1.15,2013-12-21 19:35:00,
2013-12-21 14:40:00,80.8,70.9,30.00,East,86,7.0,16.0,72,0.00,,,0.00,Wunderground v.1.15,2013-12-21 19:40:00,
2013-12-21 14:46:00,80.4,70.9,30.00,East,95,8.0,16.0,73,0.00,,,0.00,Wunderground v.1.15,2013-12-21 19:46:00,
2013-12-21 14:51:00,80.2,70.8,30.00,East,96,8.0,10.0,73,0.00,,,0.00,Wunderground v.1.15,2013-12-21 19:51:00,
2013-12-21 14:56:00,80.7,70.8,30.00,East,86,7.0,11.0,72,0.00,,,0.00,Wunderground v.1.15,2013-12-21 19:56:00,
2013-12-21 15:02:00,80.5,70.6,30.00,East,85,6.0,11.0,72,0.00,,,0.00,Wunderground v.1.15,2013-12-21 20:02:00,
2013-12-21 15:07:00,80.4,71.3,30.00,ESE,121,6.0,11.0,74,0.00,,,0.00,Wunderground v.1.15,2013-12-21 20:07:00,
2013-12-21 15:12:00,80.6,71.5,30.00,ESE,108,6.0,12.0,74,0.00,,,0.00,Wunderground v.1.15,2013-12-21 20:12:00,
2013-12-21 15:18:00,80.7,71.2,30.00,East,93,7.0,12.0,73,0.00,,,0.00,Wunderground v.1.15,2013-12-21 20:18:00,
2013-12-21 15:24:00,80.5,70.2,30.00,East,83,6.0,11.0,71,0.00,,,0.00,Wunderground v.1.15,2013-12-21 20:24:00,
2013-12-21 15:29:00,80.1,71.1,30.00,SE,132,6.0,12.0,74,0.00,,,0.00,Wunderground v.1.15,2013-12-21 20:29:00,
2013-12-21 15:35:00,79.9,70.5,30.00,ESE,117,6.0,16.0,73,0.00,,,0.00,Wunderground v.1.15,2013-12-21 20:35:00,
2013-12-21 15:41:00,80.1,71.1,30.00,ESE,113,7.0,9.0,74,0.00,,,0.00,Wunderground v.1.15,2013-12-21 20:41:00,
2013-12-21 15:46:00,79.9,70.9,30.00,East,96,7.0,10.0,74,0.00,,,0.00,Wunderground v.1.15,2013-12-21 20:46:00,
2013-12-21 15:51:00,79.8,70.8,30.00,South,182,6.0,9.0,74,0.00,,,0.00,Wunderground v.1.15,2013-12-21 20:51:00,
2013-12-21 15:57:00,79.6,70.6,30.00,ESE,104,7.0,12.0,74,0.00,,,0.00,Wunderground v.1.15,2013-12-21 20:57:00,
2013-12-21 16:02:00,79.2,70.6,30.00,ESE,123,7.0,9.0,75,0.00,,,0.00,Wunderground v.1.15,2013-12-21 21:02:00,
2013-12-21 16:08:00,79.0,70.4,30.01,ESE,120,6.0,10.0,75,0.00,,,0.00,Wunderground v.1.15,2013-12-21 21:08:00,
2013-12-21 16:14:00,79.3,70.7,30.00,SE,142,6.0,10.0,75,0.00,,,0.00,Wunderground v.1.15,2013-12-21 21:14:00,
2013-12-21 16:19:00,79.5,71.3,30.00,East,96,5.0,10.0,76,0.00,,,0.00,Wunderground v.1.15,2013-12-21 21:19:00,
2013-12-21 16:24:00,79.6,71.0,30.00,ESE,103,5.0,13.0,75,0.00,,,0.00,Wunderground v.1.15,2013-12-21 21:24:00,
2013-12-21 16:30:00,79.7,71.5,30.00,ESE,115,6.0,9.0,76,0.00,,,0.00,Wunderground v.1.15,2013-12-21 21:30:00,
2013-12-21 16:36:00,79.2,71.0,30.00,ESE,120,6.0,9.0,76,0.00,,,0.00,Wunderground v.1.15,2013-12-21 21:36:00,
2013-12-21 16:42:00,78.9,71.1,30.01,SE,146,6.0,11.0,77,0.00,,,0.00,Wunderground v.1.15,2013-12-21 21:42:00,
2013-12-21 16:47:00,78.6,70.8,30.01,ESE,113,6.0,11.0,77,0.00,,,0.00,Wunderground v.1.15,2013-12-21 21:47:00,
2013-12-21 16:53:00,78.5,70.7,30.01,ESE,121,6.0,10.0,77,0.00,,,0.00,Wunderground v.1.15,2013-12-21 21:53:00,
2013-12-21 16:58:00,78.4,70.6,30.01,SE,124,6.0,10.0,77,0.00,,,0.00,Wunderground v.1.15,2013-12-21 21:58:00,
2013-12-21 17:04:00,78.3,70.9,30.01,ESE,118,5.0,9.0,78,0.00,,,0.00,Wunderground v.1.15,2013-12-21 22:04:00,
2013-12-21 17:10:00,78.3,71.2,30.01,ESE,115,4.0,9.0,79,0.00,,,0.00,Wunderground v.1.15,2013-12-21 22:10:00,
2013-12-21 17:15:00,78.3,71.2,30.01,East,98,5.0,9.0,79,0.00,,,0.00,Wunderground v.1.15,2013-12-21 22:15:00,
2013-12-21 17:21:00,78.2,71.2,30.01,East,101,4.0,9.0,79,0.00,,,0.00,Wunderground v.1.15,2013-12-21 22:21:00,
2013-12-21 17:27:00,77.9,71.2,30.02,ESE,115,4.0,9.0,80,0.00,,,0.00,Wunderground v.1.15,2013-12-21 22:27:00,
2013-12-21 17:33:00,77.6,71.3,30.02,SE,134,5.0,9.0,81,0.00,,,0.00,Wunderground v.1.15,2013-12-21 22:33:00,
2013-12-21 17:38:00,77.4,71.5,30.02,ESE,120,4.0,9.0,82,0.00,,,0.00,Wunderground v.1.15,2013-12-21 22:38:00,
2013-12-21 17:44:00,77.2,71.3,30.02,East,99,4.0,9.0,82,0.00,,,0.00,Wunderground v.1.15,2013-12-21 22:44:00,
2013-12-21 17:49:00,77.1,71.2,30.02,East,90,4.0,9.0,82,0.00,,,0.00,Wunderground v.1.15,2013-12-21 22:49:00,
2013-12-21 17:55:00,77.1,71.5,30.02,ESE,120,4.0,9.0,83,0.00,,,0.00,Wunderground v.1.15,2013-12-21 22:55:00,
2013-12-21 18:00:00,77.1,71.5,30.02,ESE,117,4.0,9.0,83,0.00,,,0.00,Wunderground v.1.15,2013-12-21 23:00:00,
2013-12-21 18:05:00,77.0,71.4,30.02,ESE,118,4.0,9.0,83,0.00,,,0.00,Wunderground v.1.15,2013-12-21 23:05:00,
2013-12-21 18:11:00,77.0,71.4,30.02,SE,129,4.0,9.0,83,0.00,,,0.00,Wunderground v.1.15,2013-12-21 23:11:00,
2013-12-21 18:16:00,77.0,71.4,30.03,East,99,3.0,9.0,83,0.00,,,0.00,Wunderground v.1.15,2013-12-21 23:16:00,
2013-12-21 18:22:00,77.1,71.5,30.02,SE,129,3.0,9.0,83,0.00,,,0.00,Wunderground v.1.15,2013-12-21 23:22:00,
2013-12-21 18:27:00,77.0,71.4,30.03,ESE,117,3.0,9.0,83,0.00,,,0.00,Wunderground v.1.15,2013-12-21 23:27:00,
2013-12-21 18:33:00,77.0,71.4,30.03,SSE,155,2.0,9.0,83,0.00,,,0.00,Wunderground v.1.15,2013-12-21 23:33:00,
2013-12-21 18:38:00,77.0,71.8,30.03,ENE,75,2.0,9.0,84,0.00,,,0.00,Wunderground v.1.15,2013-12-21 23:38:00,
2013-12-21 18:44:00,77.1,71.9,30.03,ESE,117,3.0,9.0,84,0.00,,,0.00,Wunderground v.1.15,2013-12-21 23:44:00,
2013-12-21 18:50:00,77.2,72.0,30.03,ESE,104,4.0,4.0,84,0.00,,,0.00,Wunderground v.1.15,2013-12-21 23:50:00,
2013-12-21 18:55:00,77.1,71.9,30.03,SE,126,3.0,9.0,84,0.00,,,0.00,Wunderground v.1.15,2013-12-21 23:55:00,
2013-12-21 19:01:00,77.2,72.0,30.03,SSE,160,4.0,9.0,84,0.00,,,0.00,Wunderground v.1.15,2013-12-22 00:01:00,
2013-12-21 19:06:00,77.1,71.9,30.03,East,101,3.0,9.0,84,0.00,,,0.00,Wunderground v.1.15,2013-12-22 00:06:00,
2013-12-21 19:11:00,77.2,72.0,30.03,ENE,65,3.0,9.0,84,0.00,,,0.00,Wunderground v.1.15,2013-12-22 00:11:00,
2013-12-21 19:17:00,77.1,71.9,30.03,SE,135,3.0,9.0,84,0.00,,,0.00,Wunderground v.1.15,2013-12-22 00:17:00,
2013-12-21 19:22:00,77.1,71.9,30.03,ENE,70,2.0,9.0,84,0.00,,,0.00,Wunderground v.1.15,2013-12-22 00:22:00,
2013-12-21 19:27:00,77.0,72.1,30.03,SE,127,2.0,9.0,85,0.00,,,0.00,Wunderground v.1.15,2013-12-22 00:27:00,
2013-12-21 19:33:00,77.0,72.1,30.04,ESE,116,3.0,9.0,85,0.00,,,0.00,Wunderground v.1.15,2013-12-22 00:33:00,
2013-12-21 19:38:00,77.0,72.1,30.04,East,101,4.0,9.0,85,0.00,,,0.00,Wunderground v.1.15,2013-12-22 00:38:00,
2013-12-21 19:44:00,77.0,72.5,30.04,ENE,78,3.0,9.0,86,0.00,,,0.00,Wunderground v.1.15,2013-12-22 00:44:00,
2013-12-21 19:49:00,77.0,72.5,30.03,East,95,4.0,9.0,86,0.00,,,0.00,Wunderground v.1.15,2013-12-22 00:49:00,
2013-12-21 19:54:00,77.0,72.5,30.04,East,83,4.0,9.0,86,0.00,,,0.00,Wunderground v.1.15,2013-12-22 00:54:00,
2013-12-21 20:00:00,77.0,72.5,30.04,ESE,116,4.0,9.0,86,0.00,,,0.00,Wunderground v.1.15,2013-12-22 01:00:00,
2013-12-21 20:05:00,77.0,72.5,30.04,East,100,5.0,9.0,86,0.00,,,0.00,Wunderground v.1.15,2013-12-22 01:05:00,
2013-12-21 20:10:00,77.0,72.5,30.04,ESE,120,5.0,5.0,86,0.00,,,0.00,Wunderground v.1.15,2013-12-22 01:10:00,
2013-12-21 20:16:00,77.1,72.6,30.04,ESE,104,5.0,9.0,86,0.00,,,0.00,Wunderground v.1.15,2013-12-22 01:16:00,
2013-12-21 20:21:00,77.2,72.7,30.04,East,84,6.0,9.0,86,0.00,,,0.00,Wunderground v.1.15,2013-12-22 01:21:00,
2013-12-21 20:26:00,77.3,72.8,30.04,ESE,115,6.0,9.0,86,0.00,,,0.00,Wunderground v.1.15,2013-12-22 01:26:00,
2013-12-21 20:32:00,77.2,72.7,30.04,ESE,103,5.0,9.0,86,0.00,,,0.00,Wunderground v.1.15,2013-12-22 01:32:00,
2013-12-21 20:37:00,77.2,72.7,30.04,ESE,115,5.0,9.0,86,0.00,,,0.00,Wunderground v.1.15,2013-12-22 01:37:00,
2013-12-21 20:43:00,77.2,72.7,30.04,ESE,111,5.0,9.0,86,0.00,,,0.00,Wunderground v.1.15,2013-12-22 01:43:00,
2013-12-21 20:48:00,77.2,72.7,30.04,East,91,6.0,9.0,86,0.00,,,0.00,Wunderground v.1.15,2013-12-22 01:48:00,
2013-12-21 20:53:00,77.2,72.7,30.04,ESE,110,4.0,9.0,86,0.00,,,0.00,Wunderground v.1.15,2013-12-22 01:53:00,
2013-12-21 20:58:00,77.2,72.7,30.04,East,89,4.0,9.0,86,0.00,,,0.00,Wunderground v.1.15,2013-12-22 01:58:00,
2013-12-21 21:04:00,77.2,72.7,30.04,ESE,109,4.0,9.0,86,0.00,,,0.00,Wunderground v.1.15,2013-12-22 02:04:00,
2013-12-21 21:09:00,77.2,72.7,30.05,East,94,4.0,9.0,86,0.00,,,0.00,Wunderground v.1.15,2013-12-22 02:09:00,
2013-12-21 21:15:00,77.2,72.7,30.05,SE,136,4.0,9.0,86,0.00,,,0.00,Wunderground v.1.15,2013-12-22 02:15:00,
2013-12-21 21:20:00,77.1,72.6,30.05,SE,127,4.0,9.0,86,0.00,,,0.00,Wunderground v.1.15,2013-12-22 02:20:00,
2013-12-21 21:26:00,77.2,72.7,30.05,East,100,5.0,9.0,86,0.00,,,0.00,Wunderground v.1.15,2013-12-22 02:26:00,
2013-12-21 21:31:00,77.2,72.7,30.05,ENE,67,5.0,9.0,86,0.00,,,0.00,Wunderground v.1.15,2013-12-22 02:31:00,
2013-12-21 21:37:00,77.2,72.7,30.05,ESE,104,4.0,9.0,86,0.00,,,0.00,Wunderground v.1.15,2013-12-22 02:37:00,
2013-12-21 21:42:00,77.3,72.8,30.05,South,175,5.0,9.0,86,0.00,,,0.00,Wunderground v.1.15,2013-12-22 02:42:00,
2013-12-21 21:47:00,77.3,72.8,30.05,East,94,5.0,9.0,86,0.00,,,0.00,Wunderground v.1.15,2013-12-22 02:47:00,
2013-12-21 21:53:00,77.2,72.7,30.05,ESE,103,5.0,9.0,86,0.00,,,0.00,Wunderground v.1.15,2013-12-22 02:53:00,
2013-12-21 21:59:00,77.3,72.8,30.05,East,101,5.0,9.0,86,0.00,,,0.00,Wunderground v.1.15,2013-12-22 02:59:00,
2013-12-21 22:04:00,77.3,72.4,30.05,SE,126,5.0,9.0,85,0.00,,,0.00,Wunderground v.1.15,2013-12-22 03:04:00,
2013-12-21 22:09:00,77.2,72.3,30.05,ESE,106,5.0,9.0,85,0.00,,,0.00,Wunderground v.1.15,2013-12-22 03:09:00,
2013-12-21 22:14:00,77.2,72.3,30.05,ESE,104,4.0,9.0,85,0.00,,,0.00,Wunderground v.1.15,2013-12-22 03:14:00,
2013-12-21 22:20:00,77.2,72.3,30.05,ESE,113,5.0,9.0,85,0.00,,,0.00,Wunderground v.1.15,2013-12-22 03:20:00,
2013-12-21 22:26:00,77.3,72.4,30.05,East,91,5.0,9.0,85,0.00,,,0.00,Wunderground v.1.15,2013-12-22 03:26:00,
2013-12-21 22:32:00,77.2,72.0,30.06,ESE,122,5.0,9.0,84,0.00,,,0.00,Wunderground v.1.15,2013-12-22 03:32:00,
2013-12-21 22:37:00,77.2,72.0,30.06,East,101,5.0,9.0,84,0.00,,,0.00,Wunderground v.1.15,2013-12-22 03:37:00,
2013-12-21 22:43:00,77.2,72.0,30.06,SE,132,4.0,9.0,84,0.00,,,0.00,Wunderground v.1.15,2013-12-22 03:43:00,
2013-12-21 22:48:00,77.2,72.0,30.05,ENE,76,4.0,9.0,84,0.00,,,0.00,Wunderground v.1.15,2013-12-22 03:48:00,
2013-12-21 22:53:00,77.1,71.9,30.06,East,90,5.0,9.0,84,0.00,,,0.00,Wunderground v.1.15,2013-12-22 03:53:00,
2013-12-21 22:58:00,77.1,71.9,30.06,SE,130,5.0,9.0,84,0.00,,,0.00,Wunderground v.1.15,2013-12-22 03:58:00,
2013-12-21 23:04:00,77.0,71.4,30.05,ESE,119,5.0,9.0,83,0.00,,,0.00,Wunderground v.1.15,2013-12-22 04:04:00,
2013-12-21 23:09:00,77.0,71.4,30.05,SE,132,6.0,9.0,83,0.00,,,0.00,Wunderground v.1.15,2013-12-22 04:09:00,
2013-12-21 23:15:00,77.0,71.1,30.05,East,88,6.0,9.0,82,0.00,,,0.00,Wunderground v.1.15,2013-12-22 04:15:00,
2013-12-21 23:20:00,77.0,71.1,30.05,East,79,5.0,9.0,82,0.00,,,0.00,Wunderground v.1.15,2013-12-22 04:20:00,
2013-12-21 23:26:00,76.8,70.9,30.05,ESE,115,5.0,9.0,82,0.00,,,0.00,Wunderground v.1.15,2013-12-22 04:26:00,
2013-12-21 23:31:00,76.8,71.2,30.05,ESE,108,4.0,9.0,83,0.00,,,0.00,Wunderground v.1.15,2013-12-22 04:31:00,
2013-12-21 23:36:00,76.7,71.1,30.05,SE,139,3.0,9.0,83,0.00,,,0.00,Wunderground v.1.15,2013-12-22 04:36:00,
2013-12-21 23:41:00,76.7,71.1,30.05,SE,137,3.0,9.0,83,0.00,,,0.00,Wunderground v.1.15,2013-12-22 04:41:00,
2013-12-21 23:47:00,76.6,71.4,30.05,ESE,121,3.0,9.0,84,0.00,,,0.00,Wunderground v.1.15,2013-12-22 04:47:00,
2013-12-21 23:52:00,76.6,71.4,30.05,ESE,111,4.0,9.0,84,0.00,,,0.00,Wunderground v.1.15,2013-12-22 04:52:00,
2013-12-21 23:58:00,76.7,71.5,30.05,ESE,123,4.0,9.0,84,0.00,,,0.00,Wunderground v.1.15,2013-12-22 04:58:00,